K9SCH Weather Reports


Display with metric or nautical units.
time (UTC)temp
F
wind
direction
speed
MPH
gust
MPH
rain 1hr
in
rain 24hr
in
rain mn
in
humidity
%
barometer
mb
20260508064539 72 135 2.0 5.0 0.00 0.00 0.00 25 1012.2
20260508063516 72 135 3.0 6.0 0.00 0.00 0.00 24 1012.2
20260508062516 72 158 2.0 5.0 0.00 0.00 0.00 22 1012.1
20260508061517 72 135 3.0 5.0 0.00 0.00 0.00 21 1012.1
20260508060516 72 135 3.0 6.0 0.00 0.00 0.00 19 1012.1
20260508055537 73 135 4.0 7.0 0.00 0.00 0.00 17 1012.3
20260508054517 73 135 3.0 6.0 0.00 0.00 0.00 16 1012.1
20260508053516 72 158 1.0 4.0 0.00 0.00 0.00 15 1011.9
20260508052517 72 135 2.0 6.0 0.00 0.00 0.00 15 1011.8
20260508051516 72 0.0 1.0 0.00 0.00 0.00 15 1011.6
20260508050537 72 0.0 1.0 0.00 0.00 0.00 15 1011.5
20260508045516 73 0.0 0.0 0.00 0.00 0.00 15 1011.5
20260508044516 73 0.0 1.0 0.00 0.00 0.00 15 1011.4
20260508043517 74 0.0 0.0 0.00 0.00 0.00 14 1011.3
20260508042516 74 0.0 0.0 0.00 0.00 0.00 14 1011.2
20260508041537 75 0.0 0.0 0.00 0.00 0.00 14 1011.2
20260508040516 75 0.0 0.0 0.00 0.00 0.00 14 1011.1
20260508035516 76 0.0 0.0 0.00 0.00 0.00 13 1010.9
20260508034516 76 0.0 1.0 0.00 0.00 0.00 13 1010.7
20260508033516 78 0.0 0.0 0.00 0.00 0.00 12 1010.6
20260508032536 79 0.0 0.0 0.00 0.00 0.00 12 1010.6
20260508031516 79 0.0 0.0 0.00 0.00 0.00 12 1010.5
20260508030516 81 270 2.0 4.0 0.00 0.00 0.00 11 1010.4
20260508025516 82 270 3.0 4.0 0.00 0.00 0.00 11 1010.3
20260508024516 83 270 3.0 7.0 0.00 0.00 0.00 11 1010.3
20260508023537 83 270 4.0 6.0 0.00 0.00 0.00 10 1010.2
20260508022516 84 270 4.0 8.0 0.00 0.00 0.00 10 1010.1
20260508021517 85 270 4.0 9.0 0.00 0.00 0.00 10 1010.1
20260508020516 86 270 5.0 9.0 0.00 0.00 0.00 9 1010.1
20260508015516 87 270 4.0 8.0 0.00 0.00 0.00 8 1010.0
20260508014536 88 270 5.0 11.0 0.00 0.00 0.00 8 1009.9
20260508013517 88 270 7.0 12.0 0.00 0.00 0.00 8 1009.9
20260508012517 89 270 7.0 11.0 0.00 0.00 0.00 8 1010.0
20260508011519 89 293 4.0 11.0 0.00 0.00 0.00 8 1010.0
20260508010516 89 293 4.0 10.0 0.00 0.00 0.00 8 1010.0
20260508005536 90 293 8.0 14.0 0.00 0.00 0.00 8 1009.9
20260508004516 90 270 6.0 14.0 0.00 0.00 0.00 9 1009.9
20260508003516 90 293 7.0 14.0 0.00 0.00 0.00 9 1009.9
20260508002516 90 293 4.0 11.0 0.00 0.00 0.00 8 1009.9
20260508001516 91 293 4.0 10.0 0.00 0.00 0.00 9 1009.8
20260508000537 91 270 8.0 14.0 0.00 0.00 0.00 9 1010.0
20260507235516 91 293 4.0 13.0 0.00 0.00 0.00 9 1010.0
20260507234516 91 293 7.0 13.0 0.00 0.00 0.00 8 1010.0
20260507233516 91 338 4.0 10.0 0.00 0.00 0.00 8 1010.0
20260507232516 91 293 3.0 10.0 0.00 0.00 0.00 8 1010.0
20260507231536 91 293 2.0 8.0 0.00 0.00 0.00 8 1010.1
20260507230517 91 338 5.0 12.0 0.00 0.00 0.00 9 1010.1
20260507225517 90 270 5.0 15.0 0.00 0.00 0.00 9 1010.0
20260507224516 90 293 7.0 12.0 0.00 0.00 0.00 9 1010.2
20260507223517 90 293 9.0 19.0 0.00 0.00 0.00 9 1010.2
20260507222536 91 293 6.0 12.0 0.00 0.00 0.00 9 1010.5
20260507221516 90 270 5.0 12.0 0.00 0.00 0.00 9 1010.3
20260507220516 90 293 5.0 12.0 0.00 0.00 0.00 9 1010.5
20260507215518 91 293 6.0 11.0 0.00 0.00 0.00 9 1010.7
20260507214516 91 293 6.0 12.0 0.00 0.00 0.00 9 1010.9
20260507213536 91 293 5.0 11.0 0.00 0.00 0.00 10 1011.1
20260507212516 90 338 1.0 7.0 0.00 0.00 0.00 10 1011.2
20260507211516 90 293 4.0 10.0 0.00 0.00 0.00 10 1011.4
20260507210517 91 293 5.0 12.0 0.00 0.00 0.00 10 1011.7
20260507205517 90 45 5.0 12.0 0.00 0.00 0.00 10 1011.7
20260507204536 90 293 4.0 8.0 0.00 0.00 0.00 10 1011.7
20260507203516 90 293 3.0 11.0 0.00 0.00 0.00 10 1011.8
20260507202516 90 338 5.0 11.0 0.00 0.00 0.00 10 1012.0
20260507201516 89 248 4.0 8.0 0.00 0.00 0.00 11 1012.2
20260507200516 90 293 4.0 8.0 0.00 0.00 0.00 10 1012.4
20260507195536 90 68 3.0 8.0 0.00 0.00 0.00 10 1012.6
20260507194516 89 23 4.0 10.0 0.00 0.00 0.00 11 1012.7
20260507193516 89 338 4.0 7.0 0.00 0.00 0.00 11 1012.8
20260507192516 89 225 1.0 5.0 0.00 0.00 0.00 11 1012.9
20260507191516 88 270 1.0 5.0 0.00 0.00 0.00 12 1013.1
20260507190537 87 315 2.0 7.0 0.00 0.00 0.00 13 1013.3
20260507185519 88 338 3.0 9.0 0.00 0.00 0.00 13 1013.5
20260507184516 87 45 8.0 13.0 0.00 0.00 0.00 14 1013.7
20260507183516 87 68 3.0 6.0 0.00 0.00 0.00 15 1013.8
20260507182516 86 338 5.0 8.0 0.00 0.00 0.00 14 1013.7
20260507181537 86 45 4.0 7.0 0.00 0.00 0.00 15 1013.9
20260507180515 85 45 6.0 11.0 0.00 0.00 0.00 16 1014.0
20260507175516 84 23 3.0 6.0 0.00 0.00 0.00 17 1014.0
20260507174516 84 45 6.0 12.0 0.00 0.00 0.00 17 1014.1
20260507173516 84 23 4.0 9.0 0.00 0.00 0.00 18 1014.3
20260507172536 83 68 3.0 7.0 0.00 0.00 0.00 19 1014.4
20260507171516 83 45 3.0 7.0 0.00 0.00 0.00 19 1014.5
20260507170515 82 23 5.0 10.0 0.00 0.00 0.00 19 1014.5
20260507165516 81 45 3.0 10.0 0.00 0.00 0.00 20 1014.5
20260507164516 80 248 1.0 5.0 0.00 0.00 0.00 21 1014.4
20260507163538 80 0.0 3.0 0.00 0.00 0.00 22 1014.6
20260507162515 78 248 1.0 4.0 0.00 0.00 0.00 22 1014.7
20260507161517 77 270 1.0 4.0 0.00 0.00 0.00 22 1014.8
20260507160516 77 0.0 3.0 0.00 0.00 0.00 23 1014.9
20260507155516 76 0.0 1.0 0.00 0.00 0.00 23 1014.9
20260507154536 75 0.0 1.0 0.00 0.00 0.00 24 1015.0
20260507153515 74 270 1.0 4.0 0.00 0.00 0.00 25 1014.9
20260507152516 73 0.0 4.0 0.00 0.00 0.00 26 1014.9
20260507151516 73 248 1.0 3.0 0.00 0.00 0.00 26 1014.9
20260507150515 73 203 1.0 4.0 0.00 0.00 0.00 26 1014.9
20260507145537 73 135 1.0 4.0 0.00 0.00 0.00 27 1014.9
20260507144515 73 158 1.0 5.0 0.00 0.00 0.00 27 1014.9
20260507143515 72 0.0 0.0 0.00 0.00 0.00 27 1014.9
20260507142516 74 0.0 1.0 0.00 0.00 0.00 25 1014.9
20260507141515 74 0.0 0.0 0.00 0.00 0.00 27 1014.9
20260507140536 70 0.0 0.0 0.00 0.00 0.00 30 1014.6
20260507135516 68 0.0 0.0 0.00 0.00 0.00 31 1014.4
20260507134516 67 0.0 0.0 0.00 0.00 0.00 32 1014.3
20260507133519 65 113 2.0 5.0 0.00 0.00 0.00 34 1014.1
20260507132515 63 90 1.0 3.0 0.00 0.00 0.00 36 1013.9
20260507131536 61 0.0 1.0 0.00 0.00 0.00 38 1013.7
20260507130515 0 0.0 0.0 0.00 0.00 0.00
20260507125515 0 0.0 0.0 0.00 0.00 0.00
20260507125108 0 0.0 0.0 0.00 0.00 0.00
20260507124016 0 0.0 0.0 0.00 0.00 0.00
20260507123037 0 0.0 0.0 0.00 0.00 0.00
20260507122612 0 0.0 0.0 0.00 0.00 0.00
20260507121515 0 0.0 0.0 0.00 0.00 0.00
20260507120515 0 0.0 0.0 0.00 0.00 0.00
20260507120046 0 0.0 0.0 0.00 0.00 0.00
20260507115035 0 0.0 0.0 0.00 0.00 0.00
20260507114015 0 0.0 0.0 0.00 0.00 0.00
20260507113608 0 0.0 0.0 0.00 0.00 0.00
20260507112516 0 0.0 0.0 0.00 0.00 0.00
20260507111516 0 0.0 0.0 0.00 0.00 0.00
20260507111132 0 0.0 0.0 0.00 0.00 0.00
20260507110015 0 0.0 0.0 0.00 0.00 0.00
20260507105015 0 0.0 0.0 0.00 0.00 0.00
20260507104608 0 0.0 0.0 0.00 0.00 0.00
20260507103515 0 0.0 0.0 0.00 0.00 0.00
20260507102535 0 0.0 0.0 0.00 0.00 0.00
20260507102018 57 0.0 0.0 0.00 0.00 0.00 38 1013.7
20260507101510 57 0.0 1.0 0.00 0.00 0.00 38 1013.7
20260507101016 58 0.0 1.0 0.00 0.00 0.00 38 1013.7
20260507100018 58 0.0 0.0 0.00 0.00 0.00 37 1013.7
20260507095038 58 0.0 0.0 0.00 0.00 0.00 37 1013.8
20260507094015 59 0.0 0.0 0.00 0.00 0.00 36 1013.9
20260507093015 59 0.0 1.0 0.00 0.00 0.00 36 1014.0
20260507092016 59 0.0 0.0 0.00 0.00 0.00 36 1014.0
20260507091015 59 0.0 0.0 0.00 0.00 0.00 36 1014.1
20260507090035 59 0.0 1.0 0.00 0.00 0.00 36 1014.2
20260507085017 59 0.0 0.0 0.00 0.00 0.00 35 1014.2
20260507084015 59 0.0 1.0 0.00 0.00 0.00 35 1014.3
20260507083015 60 0.0 0.0 0.00 0.00 0.00 34 1014.4
20260507082015 60 0.0 0.0 0.00 0.00 0.00 34 1014.5
20260507081035 60 0.0 1.0 0.00 0.00 0.00 34 1014.5
20260507080015 60 0.0 1.0 0.00 0.00 0.00 33 1014.5
20260507075017 61 0.0 0.0 0.00 0.00 0.00 33 1014.7
20260507074017 61 0.0 0.0 0.00 0.00 0.00 32 1014.7
20260507073017 61 0.0 0.0 0.00 0.00 0.00 32 1014.6
20260507072037 62 0.0 0.0 0.00 0.00 0.00 31 1014.6
20260507071017 62 0.0 0.0 0.00 0.00 0.00 31 1014.6
20260507070110 62 0.0 0.0 0.00 0.00 0.00 31 1014.5
20260507065517 62 0.0 1.0 0.00 0.00 0.00 31 1014.5